Edenton, NC

3:43 AM EST on February 08, 2016 (GMT -0500)
Northeastern Regional

Weather History for KEDE - August, 2013

Change the Weather History Date:

Monday, August 26, 2013

  Actual Average Record
Temperature  
Mean Temperature 68 °F -  
Max Temperature 80 °F 85 °F 96 °F (1936)
Min Temperature 55 °F 67 °F 51 °F (1952)
Cooling Degree Days 2    
Growing Degree Days 18 (Base 50)    
Moisture  
Dew Point 57 °F    
Average Humidity 72    
Maximum Humidity 100    
Minimum Humidity 22    
Precipitation  
Precipitation 0.00 in - - ()
Sea Level Pressure  
Sea Level Pressure 30.22 in    
Wind  
Wind Speed 2 mph (NW)    
Max Wind Speed 7 mph    
Max Gust Speed -    
Visibility 10 miles    
Events      
Averages and records for this station are not official NWS values.
T = Trace of Precipitation, MM = Missing Value Source: NWS Daily Summary

Daily Weather History Graph

Daily Weather History Graph

Search for Another Location

Airport or City:

Trip Planner

Search our weather history database for the weather conditions in past years. The results will help you decide how hot, cold, wet, or windy it might be!

Date:

Astronomy

Aug. 26, 2013 Rise Set
Actual Time 6:33 AM EDT 7:41 PM EDT
Civil Twilight 6:07 AM EDT 8:08 PM EDT
Nautical Twilight 5:35 AM EDT 8:39 PM EDT
Astronomical Twilight 5:02 AM EDT 9:12 PM EDT
Moon 11:04 PM EDT (8/26) 12:20 PM EDT (8/26)
Length of Visible Light 14h 01m
Length of Day
13h 08m
Waning Gibbous, 67% of the Moon is Illuminated
Aug 26
Waning Gibbous
Aug 28
Last Quarter
Sep 5
New
Sep 12
First Quarter
Sep 19
Full

Hourly Weather History & Observations

Time (EDT) Temp. Dew Point Humidity Pressure Visibility Wind Dir Wind Speed Gust Speed Precip Events Conditions
12:15 AM 59.9 °F 58.3 °F 94% 30.31 in 10.0 mi North 3.5 mph - N/A   Unknown
12:35 AM 59.2 °F 57.9 °F 96% 30.32 in 10.0 mi North 5.8 mph - N/A   Unknown
12:55 AM 59.2 °F 57.7 °F 95% 30.32 in 10.0 mi North 4.6 mph - N/A   Unknown
1:15 AM 59.0 °F 57.6 °F 95% 30.32 in 10.0 mi North 3.5 mph - N/A   Unknown
1:35 AM 59.7 °F 58.5 °F 96% 30.31 in 10.0 mi North 5.8 mph - N/A   Unknown
1:55 AM 59.0 °F 57.6 °F 95% 30.31 in 10.0 mi Calm Calm - N/A   Unknown
2:15 AM 59.2 °F 57.7 °F 95% 30.30 in 10.0 mi Calm Calm - N/A   Unknown
2:35 AM 58.5 °F 57.2 °F 96% 30.30 in 10.0 mi Calm Calm - N/A   Unknown
2:55 AM 58.6 °F 57.2 °F 95% 30.29 in 10.0 mi North 3.5 mph - N/A   Unknown
3:15 AM 57.9 °F 56.8 °F 96% 30.28 in 10.0 mi Calm Calm - N/A   Unknown
3:35 AM 57.9 °F 56.8 °F 96% 30.28 in 10.0 mi Calm Calm - N/A   Unknown
3:55 AM 57.9 °F 56.7 °F 96% 30.28 in 10.0 mi Calm Calm - N/A   Unknown
4:15 AM 57.4 °F 56.8 °F 98% 30.28 in 10.0 mi Calm Calm - N/A   Unknown
4:35 AM 57.0 °F 57.0 °F 100% 30.28 in 10.0 mi Calm Calm - N/A   Unknown
4:55 AM 56.3 °F 56.3 °F 100% 30.28 in 10.0 mi Calm Calm - N/A   Unknown
5:15 AM 56.3 °F 56.3 °F 100% 30.28 in 10.0 mi Calm Calm - N/A   Unknown
5:35 AM 56.3 °F 56.3 °F 100% 30.28 in 10.0 mi Calm Calm - N/A   Unknown
5:55 AM 56.3 °F 56.1 °F 99% 30.27 in 10.0 mi Calm Calm - N/A   Unknown
6:15 AM 56.3 °F 56.3 °F 100% 30.28 in 10.0 mi Calm Calm - N/A   Unknown
6:35 AM 56.3 °F 56.1 °F 99% 30.28 in 10.0 mi Calm Calm - N/A   Unknown
6:55 AM 55.9 °F 55.8 °F 99% 30.28 in 10.0 mi Calm Calm - N/A   Unknown
7:15 AM 56.5 °F 56.5 °F 100% 30.28 in 10.0 mi Calm Calm - N/A   Unknown
7:35 AM 57.4 °F 57.4 °F 100% 30.28 in 10.0 mi Calm Calm - N/A   Unknown
7:55 AM 59.5 °F 59.2 °F 99% 30.28 in 10.0 mi Calm Calm - N/A   Unknown
8:15 AM 62.1 °F 61.0 °F 96% 30.28 in 10.0 mi North 3.5 mph - N/A   Unknown
8:35 AM 64.9 °F 62.8 °F 93% 30.28 in 10.0 mi North 3.5 mph - N/A   Unknown
8:55 AM 67.1 °F 63.1 °F 87% 30.29 in 10.0 mi North 4.6 mph - N/A   Unknown
9:15 AM 68.5 °F 62.4 °F 81% 30.29 in 10.0 mi NNW 5.8 mph - N/A   Unknown
9:35 AM 70.0 °F 61.0 °F 73% 30.28 in 10.0 mi Calm Calm - N/A   Unknown
9:55 AM 70.7 °F 61.2 °F 72% 30.29 in 10.0 mi Calm Calm - N/A   Unknown
10:15 AM 71.2 °F 60.8 °F 69% 30.30 in 10.0 mi Calm Calm - N/A   Unknown
10:35 AM 72.1 °F 60.8 °F 67% 30.29 in 10.0 mi Calm Calm - N/A   Unknown
10:55 AM 72.9 °F 59.5 °F 63% 30.28 in 10.0 mi Calm Calm - N/A   Unknown
11:15 AM 74.1 °F 59.5 °F 60% 30.28 in 10.0 mi North 4.6 mph - N/A   Unknown
11:35 AM 74.5 °F 54.7 °F 50% 30.28 in 10.0 mi NNW 4.6 mph - N/A   Unknown
11:55 AM 75.2 °F 58.3 °F 56% 30.28 in 10.0 mi NNE 3.5 mph - N/A   Unknown
12:15 PM 76.3 °F 58.1 °F 53% 30.27 in 10.0 mi North 3.5 mph - N/A   Unknown
12:35 PM 76.5 °F 57.0 °F 51% 30.25 in 10.0 mi Calm Calm - N/A   Unknown
12:55 PM 77.2 °F 55.6 °F 47% 30.25 in 10.0 mi ESE 3.5 mph - N/A   Unknown
1:15 PM 77.7 °F 52.5 °F 41% 30.24 in 10.0 mi SSE 4.6 mph - N/A   Unknown
1:35 PM 77.4 °F 57.0 °F 49% 30.23 in 10.0 mi SSW 5.8 mph - N/A   Unknown
1:55 PM 77.5 °F 55.6 °F 47% 30.23 in 10.0 mi SW 4.6 mph - N/A   Unknown
2:15 PM 77.5 °F 56.1 °F 47% 30.21 in 10.0 mi SW 3.5 mph - N/A   Unknown
2:35 PM 77.9 °F 55.9 °F 47% 30.20 in 10.0 mi SW 6.9 mph - N/A   Unknown
2:55 PM 78.1 °F 54.0 °F 43% 30.20 in 10.0 mi SSW 4.6 mph - N/A   Unknown
3:15 PM 78.6 °F 52.2 °F 40% 30.20 in 10.0 mi West 3.5 mph - N/A   Unknown
3:35 PM 79.2 °F 49.1 °F 35% 30.19 in 10.0 mi WSW 3.5 mph - N/A   Unknown
3:55 PM 79.7 °F 37.8 °F 22% 30.17 in 10.0 mi WSW 3.5 mph - N/A   Unknown
4:15 PM 79.5 °F 44.8 °F 29% 30.16 in 10.0 mi Calm Calm - N/A   Unknown
4:35 PM 80.1 °F 48.7 °F 33% 30.15 in 10.0 mi WSW 3.5 mph - N/A   Unknown
4:55 PM 79.3 °F 48.9 °F 34% 30.14 in 10.0 mi West 4.6 mph - N/A   Unknown
5:15 PM 79.5 °F 49.1 °F 34% 30.14 in 10.0 mi Calm Calm - N/A   Unknown
5:35 PM 79.7 °F 50.4 °F 36% 30.14 in 10.0 mi Calm Calm - N/A   Unknown
5:55 PM 79.0 °F 52.5 °F 40% 30.14 in 10.0 mi SSW 3.5 mph - N/A   Unknown
6:15 PM 79.2 °F 52.7 °F 40% 30.14 in 10.0 mi Calm Calm - N/A   Unknown
6:35 PM 78.4 °F 53.1 °F 41% 30.13 in 10.0 mi Calm Calm - N/A   Unknown
6:55 PM 77.7 °F 56.5 °F 48% 30.12 in 10.0 mi Calm Calm - N/A   Unknown
7:15 PM 76.6 °F 57.4 °F 51% 30.12 in 10.0 mi Calm Calm - N/A   Unknown
7:35 PM 73.4 °F 60.1 °F 63% 30.13 in 10.0 mi Calm Calm - N/A   Unknown
7:55 PM 70.7 °F 60.1 °F 69% 30.12 in 10.0 mi Calm Calm - N/A   Unknown
8:15 PM 67.6 °F 60.6 °F 78% 30.12 in 10.0 mi Calm Calm - N/A   Unknown
8:35 PM 67.1 °F 59.7 °F 77% 30.12 in 10.0 mi Calm Calm - N/A   Unknown
8:55 PM 66.6 °F 59.4 °F 78% 30.12 in 10.0 mi Calm Calm - N/A   Unknown
9:15 PM 66.2 °F 59.2 °F 78% 30.12 in 10.0 mi Calm Calm - N/A   Unknown
9:35 PM 65.8 °F 59.0 °F 79% 30.12 in 10.0 mi Calm Calm - N/A   Unknown
9:55 PM 64.8 °F 58.8 °F 81% 30.11 in 10.0 mi Calm Calm - N/A   Unknown
10:15 PM 65.5 °F 59.0 °F 80% 30.12 in 10.0 mi Calm Calm - N/A   Unknown
10:35 PM 65.1 °F 59.0 °F 81% 30.12 in 10.0 mi Calm Calm - N/A   Unknown
10:55 PM 65.8 °F 59.0 °F 79% 30.12 in 10.0 mi Calm Calm - N/A   Unknown
11:15 PM 66.9 °F 59.4 °F 77% 30.12 in 10.0 mi Calm Calm - N/A   Unknown
11:35 PM 65.1 °F 59.0 °F 81% 30.12 in 10.0 mi Calm Calm - N/A   Unknown
11:55 PM 65.5 °F 58.8 °F 79% 30.12 in 10.0 mi Calm Calm - N/A   Unknown